Flag for Russia Weather past 2 weeks in Barnaul, Russia

Now
55 °F

Passing clouds.


Feels Like: 54 °F
Forecast: 55 / 60 °F
Wind: 6 mph from East

Location: Barnaul Airport

Current Time: Jul 29, 2014 at 1:43:52 AM

Latest Report: Jul 29, 2014 at 1:00 AM


Visibility: N/A

Pressure: 29.33 "Hg

Humidity: 88%

Dew point: 52 °F

Location of BarnaulLocation

Historic Weather in Barnaul — Graph

°F

Barnaul temperature yesterday

Maximum temperature yesterday: 63 °F (at 1:00 PM)
Minimum temperature yesterday: 52 °F (at 4:30 AM)
Average temperature yesterday: 58 °F

Past Weeks' High & Low Weather Summary

 TemperatureHumidityPressure
High90 °F (Jul 21, 2:30 PM)100% (Jul 28, 6:00 AM)29.86 "Hg (Jul 28, 6:00 AM)
Low52 °F (Jul 28, 4:30 AM)22% (Jul 21, 3:30 PM)29.33 "Hg (Jul 28, 11:30 PM)
Average67 °F63%29.65 "Hg
* Reported Midnight between Jul 13 and Jul 14 — Jul 29 12:30 AM, Barnaul, Weather by CustomWeather, © 2014

Note: Actual official high and low records may vary slightly from our data, if they occured in-between our weather recording intervals... More about our weather records

Advertising

Barnaul weather history for previous 24 hours

 ConditionsComfort  
Time TempWeatherWind HumidityBarometerVisibility
12:30 AM
Jul 29
55 °FPassing clouds.6 mph88%29.33 "HgN/A
12:00 AM55 °FPassing clouds.6 mph94%29.33 "HgN/A
11:30 PM
Jul 28
55 °FPassing clouds.6 mph94%29.33 "HgN/A
11:00 PM54 °FPassing clouds.3 mph94%29.36 "HgN/A
10:30 PM55 °FPassing clouds.6 mph94%29.36 "HgN/A
10:00 PM57 °FScattered clouds.6 mph88%29.39 "HgN/A
9:30 PM57 °FScattered clouds.6 mph88%29.39 "HgN/A
9:00 PM59 °FPartly sunny.6 mph82%29.39 "HgN/A
8:30 PM59 °FPartly sunny.8 mph82%29.36 "HgN/A
8:00 PM59 °FPartly sunny.6 mph82%29.39 "HgN/A
7:30 PM59 °FPartly sunny.6 mph88%29.39 "HgN/A
7:00 PM59 °FSprinkles. Broken clouds.6 mph88%29.42 "HgN/A
6:30 PM61 °FSprinkles. Partly sunny.6 mph88%29.39 "HgN/A
6:00 PM61 °FLight rain. Partly sunny.10 mph83%29.39 "HgN/A
5:30 PM63 °FPartly sunny.3 mph83%29.42 "HgN/A
5:00 PM63 °FPartly sunny.6 mph77%29.39 "HgN/A
4:30 PM63 °FPartly sunny.6 mph77%29.42 "HgN/A
4:00 PM63 °FPartly sunny.6 mph77%29.42 "HgN/A
3:30 PM61 °FBroken clouds.3 mph83%29.45 "HgN/A
3:00 PM61 °FBroken clouds.6 mph77%29.45 "HgN/A
2:30 PM61 °FBroken clouds.8 mph77%29.45 "HgN/A
2:00 PM63 °FBroken clouds.8 mph73%29.45 "HgN/A
1:30 PM61 °FPartly sunny.8 mph77%29.47 "HgN/A
1:00 PM63 °FPartly sunny.8 mph77%29.47 "HgN/A
12:30 PM61 °FBroken clouds.6 mph77%29.47 "HgN/A
12:00 PM61 °FPartly sunny.3 mph83%29.50 "HgN/A
11:30 AM59 °FPartly sunny.1 mph88%29.50 "HgN/A
11:00 AM55 °FPartly sunny.3 mph94%29.50 "HgN/A
10:30 AM57 °FPartly sunny.3 mph94%29.50 "HgN/A
10:00 AM55 °FLow clouds.3 mph94%29.50 "Hg6 mi
9:30 AM55 °FLow clouds.3 mph94%29.53 "HgN/A
9:00 AM55 °FLow clouds.3 mph94%29.53 "HgN/A
8:30 AM55 °FLow clouds.6 mph94%29.53 "Hg4 mi
8:00 AM55 °FPartly sunny.6 mph94%29.53 "Hg4 mi
7:30 AM54 °FDrizzle. Fog.6 mph100%29.53 "Hg0 mi
7:00 AM54 °FDrizzle. Fog.6 mph94%29.53 "Hg0 mi
6:30 AM54 °FFog.6 mph94%29.53 "Hg0 mi
6:00 AM52 °FFog.6 mph100%29.53 "Hg0 mi
5:30 AM54 °FFog.8 mph94%29.53 "Hg0 mi
5:00 AM54 °FFog.8 mph94%29.53 "Hg2 mi
4:30 AM52 °FClear.6 mph94%29.53 "Hg10 mi
4:00 AM54 °FClear.6 mph94%29.53 "Hg10 mi
3:30 AM55 °FClear.8 mph94%29.53 "Hg10 mi
3:00 AM57 °FClear.6 mph94%29.53 "Hg10 mi
2:30 AM57 °FClear.3 mph88%29.53 "Hg10 mi
2:00 AM55 °FClear.6 mph94%29.53 "Hg10 mi
1:30 AM57 °FClear.3 mph94%29.53 "Hg10 mi
1:00 AM57 °FClear.3 mph94%29.53 "Hg10 mi
Weather by CustomWeather, © 2014

See weather overviewHow to use our weather pages